EW8363 Weather Reports


Display with metric or nautical units.
time (UTC)temp
F
wind
direction
speed
MPH
gust
MPH
rain 1hr
in
rain 24hr
in
rain mn
in
humidity
%
barometer
mb
20200406061531 49 135 7.0 21.0 0.00 0.39 0.39 81 1016.0
20200406061021 49 45 11.0 20.0 0.00 0.39 0.39 80 1015.8
20200406060510 50 90 7.0 10.0 0.00 0.39 0.39 80 1015.8
20200406060001 50 0 3.0 14.0 0.00 0.39 0.39 80 1015.7
20200406055450 50 90 9.0 14.0 0.00 0.39 0.39 81 1015.7
20200406054940 49 45 7.0 14.0 0.00 0.39 0.39 83 1015.6
20200406054429 49 90 5.0 15.0 0.00 0.39 0.39 85 1015.7
20200406053920 49 90 11.0 15.0 0.00 0.39 0.39 86 1015.6
20200406053410 49 90 7.0 13.0 0.00 0.39 0.39 88 1015.8
20200406052859 49 90 11.0 13.0 0.00 0.39 0.39 89 1015.8
20200406052350 49 135 9.0 12.0 0.00 0.39 0.39 89 1016.0
20200406051839 49 135 8.0 10.0 0.00 0.39 0.39 89 1015.9
20200406051328 49 135 5.0 13.0 0.00 0.39 0.39 90 1015.9
20200406050820 49 45 7.0 13.0 0.00 0.39 0.39 90 1015.9
20200406050309 49 135 10.0 14.0 0.00 0.39 0.39 91 1015.9
20200406045758 49 0 12.0 14.0 0.00 0.39 0.39 91 1015.6
20200406045249 49 135 6.0 10.0 0.00 0.39 0.39 90 1015.8
20200406044738 49 135 7.0 12.0 0.00 0.39 0.39 90 1015.7
20200406044228 49 90 7.0 12.0 0.00 0.39 0.39 89 1015.8
20200406043719 49 180 8.0 9.0 0.00 0.39 0.39 88 1015.8
20200406043208 50 135 5.0 10.0 0.00 0.39 0.39 88 1015.7
20200406042657 49 135 5.0 10.0 0.00 0.39 0.39 88 1015.7
20200406042148 50 90 2.0 7.0 0.00 0.39 0.39 88 1015.8
20200406041638 49 0 5.0 11.0 0.00 0.39 0.39 88 1015.9
20200406041127 50 90 3.0 11.0 0.00 0.39 0.39 87 1015.9
20200406040618 50 90 9.0 11.0 0.00 0.39 0.39 87 1015.7
20200406040106 50 135 6.0 10.0 0.00 0.39 0.39 87 1015.7
20200406035601 50 135 5.0 10.0 0.00 0.39 0.39 87 1015.6
20200406035049 50 135 7.0 11.0 0.00 0.39 0.39 86 1015.7
20200406034536 50 90 7.0 11.0 0.00 0.39 0.39 86 1015.7
20200406034026 50 90 7.0 9.0 0.00 0.39 0.39 85 1015.4
20200406033517 50 90 4.0 9.0 0.00 0.39 0.39 84 1015.3
20200406033005 50 90 6.0 9.0 0.00 0.39 0.39 84 1015.2
20200406032457 50 90 7.0 9.0 0.00 0.39 0.39 84 1015.3
20200406031947 50 90 5.0 9.0 0.00 0.39 0.39 84 1015.3
20200406031435 50 90 3.0 8.0 0.00 0.39 0.39 84 1015.3
20200406030925 50 90 6.0 10.0 0.00 0.39 0.39 84 1015.4
20200406030417 50 135 7.0 10.0 0.00 0.39 0.39 83 1015.2
20200406025906 50 90 5.0 9.0 0.00 0.39 0.39 83 1015.2
20200406025354 51 90 3.0 9.0 0.00 0.39 0.39 83 1015.3
20200406024846 51 45 6.0 9.0 0.00 0.39 0.39 83 1015.0
20200406024335 51 135 5.0 10.0 0.00 0.39 0.39 83 1015.0
20200406023825 51 90 4.0 10.0 0.00 0.39 0.39 83 1014.8
20200406023316 51 90 5.0 10.0 0.00 0.39 0.39 82 1015.1
20200406022804 51 90 5.0 11.0 0.00 0.39 0.39 82 1015.0
20200406022254 51 90 8.0 11.0 0.00 0.39 0.39 82 1014.9
20200406021745 51 90 7.0 9.0 0.00 0.39 0.39 81 1015.1
20200406021233 51 45 5.0 9.0 0.00 0.39 0.39 81 1015.0
20200406020724 51 90 5.0 7.0 0.00 0.39 0.39 81 1015.0
20200406020214 51 90 5.0 9.0 0.00 0.39 0.39 82 1015.2
20200406015702 51 0 4.0 11.0 0.00 0.39 0.39 81 1015.0
20200406015154 51 135 5.0 13.0 0.00 0.39 0.39 81 1015.1
20200406014644 51 90 6.0 13.0 0.00 0.39 0.39 81 1014.8
20200406014134 51 90 3.0 11.0 0.00 0.39 0.39 81 1014.8
20200406013623 51 90 7.0 15.0 0.00 0.39 0.39 81 1015.0
20200406013113 51 135 9.0 15.0 0.00 0.39 0.39 80 1014.9
20200406012602 51 90 6.0 15.0 0.00 0.39 0.39 80 1015.0
20200406012053 52 90 6.0 13.0 0.00 0.39 0.39 81 1015.0
20200406011544 51 135 9.0 13.0 0.00 0.39 0.39 83 1015.0
20200406011032 51 90 2.0 6.0 0.00 0.39 0.39 83 1014.8
20200406010522 51 45 3.0 4.0 0.00 0.39 0.39 83 1015.0
20200406010013 51 45 3.0 5.0 0.00 0.39 0.39 83 1015.1
20200406005501 51 45 1.0 5.0 0.00 0.39 0.39 82 1015.2
20200406004952 51 45 2.0 5.0 0.00 0.39 0.39 82 1015.1
20200406004442 51 90 4.0 7.0 0.00 0.39 0.39 82 1015.0
20200406003931 51 135 2.0 7.0 0.00 0.39 0.39 82 1015.1
20200406003420 51 90 5.0 7.0 0.00 0.39 0.39 82 1015.1
20200406002912 51 90 2.0 6.0 0.00 0.39 0.39 82 1015.2
20200406002401 51 45 3.0 9.0 0.00 0.39 0.39 82 1015.1
20200406001851 51 90 5.0 10.0 0.00 0.39 0.39 81 1015.1
20200406001344 51 90 9.0 10.0 0.00 0.39 0.39 81 1015.2
20200406000829 51 45 6.0 10.0 0.00 0.39 0.39 81 1015.1
20200406000320 51 90 8.0 10.0 0.00 0.39 0.39 81 1015.0
20200405235812 51 90 3.0 12.0 0.00 0.39 0.39 81 1015.2
20200405235259 51 90 2.0 12.0 0.00 0.39 0.39 82 1015.2
20200405234749 51 45 3.0 7.0 0.00 0.39 0.39 82 1015.2
20200405234240 51 90 4.0 7.0 0.00 0.39 0.39 83 1015.3
20200405233730 51 90 5.0 8.0 0.00 0.39 0.39 83 1015.2
20200405233220 51 90 5.0 8.0 0.00 0.39 0.39 84 1015.3
20200405232710 51 90 3.0 7.0 0.00 0.39 0.39 85 1015.1
20200405232159 51 90 3.0 7.0 0.00 0.39 0.39 86 1015.4
20200405231649 51 0 5.0 7.0 0.00 0.39 0.39 86 1015.3
20200405231139 51 0 2.0 7.0 0.00 0.39 0.39 86 1015.1
20200405230629 51 90 4.0 5.0 0.00 0.39 0.39 86 1015.3
20200405230118 51 45 2.0 3.0 0.00 0.39 0.39 85 1015.3
20200405225609 51 90 1.0 3.0 0.00 0.39 0.39 85 1015.3
20200405225057 51 45 1.0 4.0 0.00 0.39 0.39 84 1015.4
20200405224547 51 90 1.0 6.0 0.00 0.39 0.39 84 1015.3
20200405224040 51 135 3.0 6.0 0.00 0.39 0.39 84 1015.4
20200405223527 51 45 3.0 6.0 0.00 0.39 0.39 84 1015.4
20200405223017 51 90 3.0 5.0 0.00 0.39 0.39 85 1015.4
20200405222509 51 0 3.0 5.0 0.00 0.39 0.39 85 1015.5
20200405221957 51 0 1.0 3.0 0.00 0.39 0.39 85 1015.5
20200405221447 51 45 2.0 3.0 0.00 0.39 0.39 86 1015.6
20200405220938 51 180 3.0 3.0 0.00 0.39 0.39 86 1015.6
20200405220427 51 90 3.0 5.0 0.01 0.39 0.39 87 1015.6
20200405215916 51 90 4.0 5.0 0.01 0.39 0.39 87 1015.9
20200405215407 51 45 0.0 3.0 0.01 0.39 0.39 88 1015.9
20200405214857 51 0 1.0 3.0 0.01 0.39 0.39 89 1015.6
20200405214346 51 135 1.0 3.0 0.01 0.39 0.39 90 1015.9
20200405213837 51 0 1.0 3.0 0.01 0.39 0.39 90 1015.7
20200405213325 51 0 2.0 3.0 0.01 0.39 0.39 91 1016.1
20200405212815 50 90 2.0 3.0 0.01 0.39 0.39 91 1015.8
20200405212308 50 0 2.0 3.0 0.01 0.39 0.39 91 1016.0
20200405211755 50 90 1.0 2.0 0.01 0.39 0.39 91 1016.0
20200405211245 50 0 1.0 3.0 0.01 0.39 0.39 92 1016.1
20200405210736 50 90 0.0 3.0 0.00 0.38 0.38 92 1016.2
20200405210224 50 45 2.0 5.0 0.00 0.38 0.38 92 1016.1
20200405205715 50 0 2.0 5.0 0.00 0.38 0.38 92 1016.1
20200405205205 50 90 0.0 5.0 0.01 0.38 0.38 92 1016.2
20200405204655 50 90 2.0 5.0 0.01 0.38 0.38 91 1016.1
20200405204149 50 135 3.0 3.0 0.01 0.38 0.38 91 1016.0
20200405203636 50 0 2.0 5.0 0.01 0.38 0.38 91 1016.3
20200405203144 50 90 2.0 5.0 0.01 0.38 0.38 90 1016.3
20200405202614 50 90 3.0 5.0 0.01 0.38 0.38 90 1016.2
20200405202105 50 90 3.0 5.0 0.01 0.38 0.38 90 1016.0
20200405201553 50 90 3.0 5.0 0.01 0.38 0.38 90 1016.2
20200405201043 50 0 3.0 5.0 0.01 0.38 0.38 90 1016.4
20200405200536 50 90 4.0 5.0 0.01 0.38 0.38 90 1016.3
20200405200032 50 90 4.0 9.0 0.01 0.38 0.38 90 1016.3
20200405195513 50 90 6.0 9.0 0.01 0.38 0.38 90 1016.4
20200405195004 50 90 5.0 7.0 0.00 0.37 0.37 91 1016.1
20200405194453 50 135 5.0 7.0 0.00 0.37 0.37 90 1016.3
20200405193943 50 135 4.0 7.0 0.00 0.37 0.37 89 1016.3
20200405193433 50 90 4.0 7.0 0.00 0.37 0.37 88 1016.4
20200405192923 51 90 5.0 6.0 0.00 0.37 0.37 88 1016.3
20200405192412 51 90 4.0 6.0 0.00 0.37 0.37 89 1016.4
20200405191904 51 90 2.0 6.0 0.00 0.37 0.37 90 1016.4
20200405191353 51 135 3.0 5.0 0.00 0.37 0.37 90 1016.5
20200405190842 51 135 2.0 7.0 0.00 0.37 0.37 91 1016.6
20200405190332 51 135 4.0 7.0 0.01 0.37 0.37 92 1016.4
20200405185821 51 180 4.0 5.0 0.01 0.37 0.37 93 1016.6
20200405185311 51 135 5.0 5.0 0.01 0.37 0.37 94 1016.6
20200405184803 51 90 1.0 5.0 0.01 0.37 0.37 95 1016.5
20200405184251 51 90 3.0 5.0 0.01 0.37 0.37 97 1016.8
20200405183741 51 180 1.0 6.0 0.01 0.37 0.37 97 1016.8
20200405183232 50 45 1.0 6.0 0.02 0.37 0.37 98 1016.6
20200405182721 50 90 2.0 7.0 0.02 0.37 0.37 98 1016.6
20200405182212 49 45 5.0 7.0 0.04 0.37 0.37 98 1016.6
20200405181701 49 90 1.0 6.0 0.04 0.37 0.37 98 1016.9
20200405181150 49 0 2.0 6.0 0.04 0.37 0.37 98 1016.8
20200405180641 49 45 4.0 6.0 0.05 0.35 0.37 98 1016.8
20200405180131 49 90 4.0 7.0 0.05 0.35 0.35 98 1016.9
20200405175621 49 90 5.0 7.0 0.05 0.35 0.35 98 1017.0
20200405175110 49 135 3.0 8.0 0.05 0.35 0.35 98 1016.6
20200405174601 49 135 3.0 9.0 0.05 0.35 0.35 98 1017.2
20200405174049 48 90 7.0 9.0 0.06 0.35 0.35 98 1016.9
20200405173539 49 45 6.0 9.0 0.05 0.34 0.34 98 1016.8
20200405173031 49 45 4.0 9.0 0.05 0.34 0.34 98 1017.0
20200405172519 49 135 6.0 9.0 0.05 0.33 0.34 98 1016.8
20200405172009 49 90 2.0 9.0 0.06 0.33 0.33 98 1017.1
20200405171500 49 90 4.0 9.0 0.07 0.33 0.33 98 1017.0
20200405170949 48 90 8.0 9.0 0.07 0.32 0.33 98 1016.9
20200405170440 48 45 4.0 10.0 0.07 0.31 0.31 98 1016.9
20200405165930 48 45 4.0 11.0 0.07 0.31 0.31 98 1017.0
20200405165418 48 135 6.0 13.0 0.08 0.31 0.31 98 1016.9
20200405164911 48 90 9.0 13.0 0.09 0.31 0.31 98 1016.5
20200405164359 48 90 7.0 12.0 0.09 0.30 0.30 98 1016.3
20200405163849 48 90 7.0 12.0 0.09 0.30 0.30 98 1016.6
20200405163338 48 45 6.0 17.0 0.11 0.30 0.30 98 1016.4
20200405162828 48 90 7.0 17.0 0.09 0.28 0.28 98 1016.4
20200405162318 48 45 9.0 10.0 0.09 0.27 0.28 98 1016.4
20200405161808 49 135 5.0 10.0 0.08 0.26 0.26 98 1016.4
20200405161259 49 180 5.0 11.0 0.09 0.26 0.26 97 1016.3
20200405160747 49 135 4.0 11.0 0.08 0.25 0.25 97 1016.3
20200405160237 49 135 7.0 14.0 0.08 0.24 0.24 97 1016.5
20200405155728 49 90 5.0 14.0 0.09 0.24 0.24 97 1016.3
20200405155216 49 135 5.0 13.0 0.08 0.22 0.22 96 1016.1
20200405154708 49 135 7.0 11.0 0.08 0.21 0.21 96 1016.4
20200405154158 49 90 5.0 9.0 0.07 0.20 0.20 96 1016.3
20200405153646 49 135 5.0 7.0 0.06 0.19 0.19 96 1016.2
20200405153136 49 90 4.0 7.0 0.06 0.19 0.19 95 1016.1
20200405152628 49 90 4.0 5.0 0.06 0.19 0.19 95 1016.1
20200405152117 49 180 3.0 6.0 0.05 0.18 0.18 95 1016.1
20200405151606 49 90 3.0 6.0 0.05 0.18 0.18 94 1016.2
20200405151056 49 90 4.0 5.0 0.04 0.17 0.17 94 1016.2
20200405150545 49 180 2.0 4.0 0.04 0.17 0.17 93 1016.3
20200405150035 49 135 3.0 7.0 0.02 0.15 0.15 93 1015.9
20200405145527 49 90 3.0 7.0 0.01 0.14 0.14 93 1016.1
20200405145015 49 90 4.0 5.0 0.01 0.14 0.14 92 1016.1
20200405144505 49 135 1.0 4.0 0.00 0.13 0.13 92 1015.9
20200405143955 49 180 1.0 7.0 0.00 0.13 0.13 92 1016.1
20200405143444 49 90 3.0 7.0 0.00 0.13 0.13 92 1016.1
20200405142935 49 90 1.0 5.0 0.00 0.13 0.13 93 1015.8
20200405142425 49 90 1.0 5.0 0.00 0.13 0.13 93 1015.8
20200405141914 49 90 2.0 8.0 0.00 0.13 0.13 93 1015.8
20200405141404 49 45 7.0 8.0 0.00 0.13 0.13 94 1015.8
20200405140855 49 90 3.0 5.0 0.00 0.13 0.13 94 1015.7
20200405140345 49 90 3.0 5.0 0.01 0.13 0.13 95 1015.7
20200405135833 49 90 3.0 5.0 0.01 0.13 0.13 95 1015.7
20200405135325 49 0 3.0 5.0 0.01 0.13 0.13 95 1015.6
20200405134813 49 45 1.0 4.0 0.01 0.13 0.13 96 1015.5
20200405134303 49 90 3.0 4.0 0.02 0.13 0.13 96 1015.7
20200405133755 49 0 1.0 4.0 0.04 0.13 0.13 96 1015.4
20200405133243 49 45 3.0 4.0 0.05 0.13 0.13 97 1015.4
20200405132732 49 180 3.0 4.0 0.05 0.13 0.13 97 1015.3
20200405132223 49 90 3.0 5.0 0.06 0.13 0.13 97 1015.5
20200405131712 49 90 3.0 5.0 0.06 0.13 0.13 97 1015.5
20200405131203 49 135 3.0 4.0 0.07 0.13 0.13 97 1015.3
20200405130657 49 90 3.0 4.0 0.07 0.13 0.13 97 1015.5
20200405130142 49 90 1.0 3.0 0.06 0.12 0.12 97 1015.3
20200405125632 49 90 0.0 3.0 0.06 0.12 0.12 97 1015.5
20200405125123 49 90 1.0 3.0 0.07 0.12 0.12 97 1015.4
20200405124612 49 0 0.0 3.0 0.06 0.11 0.11 97 1015.3
20200405124101 49 0 2.0 3.0 0.05 0.09 0.09 97 1015.4
20200405123553 49 180 1.0 3.0 0.04 0.08 0.08 97 1015.3
20200405123041 49 180 2.0 5.0 0.04 0.08 0.08 97 1015.2
20200405122530 49 45 2.0 5.0 0.02 0.07 0.07 97 1015.5
20200405122023 49 90 2.0 3.0 0.04 0.07 0.07 97 1015.1
20200405121510 49 45 1.0 4.0 0.04 0.07 0.07 97 1015.2
20200405121000 49 180 0.0 4.0 0.04 0.06 0.06 97 1015.3
20200405120451 49 90 3.0 4.0 0.04 0.06 0.06 96 1015.2
20200405115940 49 90 2.0 4.0 0.04 0.06 0.06 96 1015.1
20200405115431 49 90 1.0 4.0 0.02 0.05 0.05 96 1015.4
20200405114921 49 180 1.0 4.0 0.02 0.05 0.05 96 1015.3
20200405114409 49 90 1.0 4.0 0.04 0.05 0.05 96 1015.0
20200405113859 49 0 1.0 5.0 0.04 0.05 0.05 96 1015.1
20200405113351 49 180 3.0 5.0 0.04 0.05 0.05 95 1015.2
20200405112840 49 90 1.0 5.0 0.04 0.05 0.05 95 1015.2
20200405112329 49 90 3.0 5.0 0.04 0.05 0.05 95 1015.0
20200405111820 49 135 1.0 6.0 0.02 0.04 0.04 94 1014.9
20200405111308 50 180 3.0 6.0 0.02 0.04 0.04 94 1015.1
20200405110758 50 90 5.0 6.0 0.01 0.02 0.02 94 1015.0
20200405110250 50 90 2.0 5.0 0.01 0.02 0.02 93 1014.9
20200405105738 50 180 2.0 5.0 0.01 0.02 0.02 93 1015.0
20200405105228 50 180 2.0 5.0 0.01 0.02 0.02 93 1015.0
20200405104719 50 135 2.0 5.0 0.00 0.01 0.01 92 1015.0
20200405104207 50 135 2.0 7.0 0.01 0.01 0.01 92 1015.0
20200405103659 50 135 3.0 7.0 0.01 0.01 0.01 93 1014.9
20200405103149 50 135 3.0 5.0 0.01 0.01 0.01 93 1014.9
20200405102638 50 90 3.0 4.0 0.01 0.01 0.01 93 1014.9
20200405102128 50 45 3.0 4.0 0.01 0.01 0.01 93 1015.1
20200405101619 50 135 1.0 4.0 0.01 0.01 0.01 92 1015.2
20200405101113 50 90 1.0 3.0 0.01 0.01 0.01 92 1015.0
20200405100557 50 135 3.0 4.0 0.01 0.01 0.01 91 1015.4
20200405100048 50 135 3.0 5.0 0.01 0.01 0.01 91 1015.3
20200405095537 50 90 3.0 5.0 0.01 0.01 0.01 90 1015.1
20200405095026 50 90 3.0 7.0 0.01 0.01 0.01 90 1015.4
20200405094519 50 90 3.0 7.0 0.01 0.01 0.01 89 1015.3
20200405094006 50 90 3.0 6.0 0.00 0.00 0.00 88 1015.3
20200405093456 50 135 3.0 6.0 0.00 0.00 0.00 86 1015.4
20200405092947 50 135 3.0 6.0 0.00 0.00 0.00 85 1015.4
20200405092439 51 180 5.0 7.0 0.00 0.00 0.00 84 1015.8
20200405091927 51 135 3.0 9.0 0.00 0.00 0.00 83 1015.7
20200405091417 51 135 3.0 9.0 0.00 0.00 0.00 83 1015.9
20200405090905 51 135 5.0 7.0 0.00 0.00 0.00 83 1015.9
20200405090355 51 180 3.0 7.0 0.00 0.00 0.00 83 1016.0
20200405085846 51 90 3.0 7.0 0.00 0.00 0.00 83 1015.8
20200405085336 51 90 5.0 7.0 0.00 0.00 0.00 83 1015.9
20200405084825 51 90 4.0 5.0 0.00 0.00 0.00 83 1016.0
20200405084316 51 90 3.0 5.0 0.00 0.00 0.00 83 1016.2
20200405083804 51 135 3.0 5.0 0.00 0.00 0.00 84 1016.2
20200405083254 51 135 3.0 5.0 0.00 0.00 0.00 83 1016.2
20200405082746 51 90 2.0 3.0 0.00 0.00 0.00 83 1016.1
20200405082234 51 135 2.0 4.0 0.00 0.00 0.00 82 1015.9
20200405081724 51 135 3.0 5.0 0.00 0.00 0.00 82 1016.1
20200405081215 51 180 2.0 5.0 0.00 0.00 0.00 82 1015.9
20200405080703 51 90 3.0 10.0 0.00 0.00 0.00 83 1016.1
20200405080155 51 90 2.0 10.0 0.00 0.00 0.00 83 1016.3
20200405075645 51 90 4.0 9.0 0.00 0.00 0.00 83 1016.1
20200405075132 51 90 4.0 9.0 0.00 0.00 0.00 83 1016.2
20200405074622 51 90 5.0 7.0 0.00 0.00 0.00 83 1016.3
20200405074113 51 90 5.0 10.0 0.00 0.00 0.00 83 1016.3
20200405073604 51 90 6.0 10.0 0.00 0.00 0.00 83 1016.4
20200405073053 51 135 7.0 8.0 0.00 0.00 0.00 83 1016.5
20200405072544 51 45 5.0 8.0 0.00 0.00 0.00 83 1016.5
20200405072032 51 135 3.0 8.0 0.00 0.00 0.00 83 1016.6
20200405071522 51 90 4.0 7.0 0.00 0.00 0.00 84 1016.6
20200405071016 51 135 3.0 6.0 0.00 0.00 0.00 85 1016.6
20200405070502 51 90 3.0 6.0 0.00 0.00 0.00 86 1016.3
20200405065951 51 90 3.0 6.0 0.00 0.00 0.00 86 1016.4
20200405065443 51 90 4.0 6.0 0.00 0.00 0.00 86 1016.6
20200405064931 51 180 3.0 3.0 0.00 0.00 0.00 86 1016.6
20200405064423 51 90 3.0 7.0 0.00 0.00 0.00 86 1016.4
20200405063912 51 90 2.0 7.0 0.00 0.00 0.00 87 1016.5
20200405063401 51 135 3.0 6.0 0.00 0.00 0.00 87 1016.4
20200405062851 51 135 4.0 8.0 0.00 0.00 0.00 88 1016.8
20200405062341 51 90 5.0 10.0 0.00 0.00 0.00 88 1016.6